Tracking 25656 objects as of 21-May-2022
HD Live streaming from Space Station
objects crossing your sky now

SPACEBEE-10

Track SPACEBEE-10 now!
10-day predictions


NORAD ID: 46305
Int'l Code: 2020-061AK
Perigee: 511.4 km
Apogee: 513.2 km
Inclination: 97.5 °
Period: 94.7 minutes
Semi major axis: 6883 km
RCS: Unknown
Launch date: September 3, 2020
Source: United States (US)
Launch site: FRENCH GUIANA (FRGUI)
aabbcc
Your satellite tracking list
Your tracking list is empty




NASA's NSSDC Master Catalog

Two Line Element Set (TLE):
1 46305U 20061AK  22141.20326946  .00049017  00000-0  22507-2 0  9998
2 46305  97.4525 214.3126 0001347 174.5299 185.5951 15.20228211 94431
Source of the keplerian elements: AFSPC